* Astronomy

Members Login
Username 
 
Password 
    Remember Me  
Post Info TOPIC: Asteroid 1995 KG1


L

Posts: 131433
Date:
Asteroid 1995 KG1
Permalink  
 


Orbital elements:
1995 KG1
Epoch 2010 July 23.0 TT = JDT 2455400.5 MPC
M 10.56167 (2000.0) P Q
n 0.19583767 Peri. 154.84874 -0.72850739 +0.49757210
a 2.9367833 Node 63.38687 -0.68304801 -0.47525726
e 0.5471507 Incl. 31.77916 -0.05217664 -0.72563940
P 5.03 H 19.8 G 0.15 U 3

MPEC 2010 - O02


__________________
Page 1 of 1  sorted by
 
Quick Reply

Please log in to post quick replies.



Create your own FREE Forum
Report Abuse
Powered by ActiveBoard